Skip Page Navigation
NASA JPL Caltech
NASA Logo - Jet Propulsion Laboratory + View the NASA Portal
+ Center for Near-Earth Object Studies
JPL Home Earth Solar System Stars & Galaxies Technology
JPL Solar System Dynamics
BODIES ORBITS EPHEMERIDES TOOLS PHYSICAL DATA DISCOVERY FAQ SITE MAP
JPL Small-Body Database Browser
Search: [ help ]  
27535 (2000 HL76)
Classification: Main-belt Asteroid          SPK-ID: 2027535
Ephemeris | Orbit Diagram | Orbital Elements | Mission Design | Physical Parameters | Discovery Circumstances | Close-Approach Data ]

[ show orbit diagram ]
Orbital Elements at Epoch 2459000.5 (2020-May-31.0) TDB
Reference: JPL 26 (heliocentric ecliptic J2000)
 Element Value Uncertainty (1-sigma)   Units 
e .09170938952795782 4.5158e-08  
a 3.059559451774291 2.122e-08 au
q 2.778969122227577 1.409e-07 au
i 11.75829660632476 5.0143e-06 deg
node 76.75033854262885 2.2009e-05 deg
peri 22.46661856447294 3.5129e-05 deg
M 27.49566875737006 2.5621e-05 deg
tp 2458851.203867272548
(2020-Jan-02.70386727)
0.00013908 TDB
period 1954.729970605874
5.35
2.0336e-05
5.568e-08
d
yr
n .1841686603333845 1.916e-09 deg/d
Q 3.340149781321004 2.3166e-08 au
  Orbit Determination Parameters
   # obs. used (total)      941  
   data-arc span      15835 days (43.35 yr)  
   first obs. used      1976-12-18  
   last obs. used      2020-04-26  
   planetary ephem.      DE431  
   SB-pert. ephem.      SB431-N16  
   condition code      0  
   norm. resid. RMS      .56072  
   source      ORB  
   producer      Otto Matic  
   solution date      2020-May-20 06:11:37  

Additional Information
 Earth MOID = 1.79945 au 
 Jupiter MOID = 1.88228 au 
 T_jup = 3.196 
[ show covariance matrix ]

Ephemeris | Orbit Diagram | Orbital Elements | Mission Design | Physical Parameters | Discovery Circumstances | Close-Approach Data ]

Physical Parameter Table
Parameter Symbol Value Units Sigma Reference Notes
absolute magnitude H 14.1   n/a MPO337491  
diameter diameter 4.101 km 0.765 urn:nasa:pds:neowise_diameters_albedos::2.0[mainbelt] (http://adsabs.harvard.edu/abs/2011ApJ...741...68M)  
geometric albedo albedo 0.348   0.107 urn:nasa:pds:neowise_diameters_albedos::2.0[mainbelt] (http://adsabs.harvard.edu/abs/2011ApJ...741...68M)  

27535 (2000 HL76)          Discovered 2000-Apr-27 by LINEAR at Socorro
Reference: 20010804/Numbers.arcLast Updated: 2004-04-19

[ show close-approach data ]
Alternate Designations
 2000 HL76 = 1976 YV5 = 1999 CS35 
Ephemeris | Orbit Diagram | Orbital Elements | Mission Design | Physical Parameters | Discovery Circumstances | Close-Approach Data ]
ABOUT SSD CREDITS/AWARDS PRIVACY/COPYRIGHT GLOSSARY LINKS
FirstGov 2020-Sep-26 19:01 UT
(server date/time)  
NASA Home Page
Site Manager:   Ryan S. Park
Webmaster  Alan B. Chamberlin